[[{"header":{"parameterUnit":"m.s-1","parameterCategory":1,"la1":30.2991,"la2":30.254,"lo1":-89.0895,"lo2":-89.0444,"dy":0.0017,"dx":0.0017,"nx":28,"ny":28,"refTime":"2025-03-31T21:00:00:Z","depth":0,"parameterNumber":2,"parameterNumberName":"U-component_of_WINDS"},"data":[0,0,0,0,0,0,0,0,0,0,0,0,0,0,0,0,0,0,0,0,0,0,0,0,0,0,0,0,0,0,0,0,0,0,0,0,0,0,0,0,0,0,0,0,0,0,0,0,0,0,0,0,0,0,0,0,0,0,-3.795,-3.795,0,-3.7986,-3.7987,-3.7987,-3.7944,-3.7942,-3.7941,-3.7939,-3.7975,-3.7977,-3.798,0,0,0,0,0,0,0,0,0,0,0,0,0,-3.784,-3.7843,-3.795,-3.795,-3.7951,-3.7986,-3.7987,-3.7987,-3.7944,-3.7942,-3.794,-3.7939,-3.7974,-3.7977,-3.798,0,0,0,0,0,0,0,0,0,0,0,0,0,-3.7884,-3.7843,-3.795,-3.7934,-3.7932,-3.7986,-3.7987,-3.7987,-3.7945,-3.7942,-3.794,-3.7938,-3.7973,-3.7977,-3.798,-3.8051,0,0,-3.7991,-3.7993,0,0,0,0,0,0,0,0,-3.7881,-3.7888,-3.7935,-3.7935,-3.7934,-3.7958,-3.7961,-3.8009,-3.7945,-3.794,-3.7939,-3.7937,-3.7971,-3.7975,-3.7987,-3.8053,-3.8054,-3.7992,-3.7994,-3.7996,-3.7997,0,0,0,0,0,0,0,-3.7878,-3.7886,-3.7964,-3.7936,-3.7935,-3.7924,-3.7927,-3.797,-3.7969,-3.794,-3.7937,-3.7942,-3.797,-3.7983,-3.7987,-3.8055,-3.7992,-3.7995,-3.7997,-3.7999,-3.8179,-3.8182,0,0,0,0,0,0,-3.7877,-3.7884,-3.7963,-3.7965,-3.7901,-3.7928,-3.7932,-3.7953,-3.7968,-3.7968,-3.7944,-3.794,-3.7978,-3.7983,-3.7988,-3.8071,-3.7995,-3.7999,-3.8001,-3.8177,-3.818,-3.8183,0,0,0,0,0,0,-3.7875,-3.7885,-3.7961,-3.7924,-3.7933,-3.7932,-3.7956,-3.7955,-3.7968,-3.7971,-3.797,-3.7958,-3.7977,-3.7983,-3.8036,-3.8072,-3.8001,-3.8004,-3.8174,-3.8178,-3.8181,-3.8238,0,0,0,0,0,0,-3.7872,-3.7884,-3.7912,-3.7925,-3.7935,-3.8009,-3.7959,-3.7957,-3.7975,-3.797,-3.7984,-3.7984,-3.7975,-3.803,-3.8039,-3.8076,-3.8007,-3.817,-3.8175,-3.818,-3.8233,-3.8244,-3.8253,0,0,0,0,0,-3.7869,-3.7926,-3.7913,-3.7923,-3.7969,-3.8011,-3.8017,-3.8006,-3.7978,-3.8005,-3.8007,-3.7984,-3.8067,-3.8036,-3.8046,-3.8084,-3.8168,-3.8174,-3.818,-3.8229,-3.8242,-3.8252,0,0,0,0,0,0,-3.7916,-3.7927,-3.7913,-3.7977,-3.7993,-3.8004,-3.8037,-3.802,-3.8044,-3.8039,-3.8024,-3.8027,-3.8083,-3.8089,-3.8054,-3.8153,-3.8113,-3.8121,-3.8147,-3.8159,-3.8169,-3.8165,-3.801,0,0,0,0,0,-3.7934,-3.7968,-3.7976,-3.8031,-3.804,-3.8038,-3.8056,-3.8046,-3.8062,-3.8069,-3.8075,-3.8091,-3.812,-3.814,-3.8168,-3.8234,-3.8236,-3.8265,-3.8275,-3.8283,-3.829,-3.8324,-3.8337,-3.8202,-3.8202,-3.8202,0,0,-3.7972,-3.7982,-3.8004,-3.8041,-3.8053,-3.8087,-3.8044,-3.8082,-3.8108,-3.8074,-3.8124,-3.8129,-3.8146,-3.8206,-3.8232,-3.8212,-3.8328,-3.8291,-3.8297,-3.8299,-3.8332,-3.8344,-3.8356,-3.8206,-3.8205,-3.8205,0,0,-3.8057,-3.8069,-3.8116,-3.8129,-3.8147,-3.8145,-3.8157,-3.817,-3.8172,-3.8222,-3.8198,-3.8228,-3.8279,-3.8292,-3.8305,-3.8397,-3.8376,-3.8406,-3.8456,-3.849,-3.8501,-3.851,-3.8541,-3.8553,-3.8413,-3.8413,-3.8413,0,-3.81,-3.8152,-3.8142,-3.8182,-3.8199,-3.8172,-3.8218,-3.8231,-3.8258,-3.8269,-3.8247,-3.8311,-3.8321,-3.8383,-3.8405,-3.8417,-3.8429,-3.8404,-3.8501,-3.851,-3.8518,-3.8548,-3.856,-3.8417,-3.8416,-3.8416,-3.8416,0,-3.8204,-3.8241,-3.8277,-3.8304,-3.8324,-3.8368,-3.8363,-3.8385,-3.8374,-3.8375,-3.8425,-3.8436,-3.8465,-3.848,-3.8469,-3.854,-3.8527,-3.8503,-3.8462,-3.8535,-3.8562,-3.8573,-3.8422,-3.842,-3.8419,-3.8419,0,0,-3.8319,-3.8341,-3.8354,-3.8365,-3.8385,-3.8412,-3.8454,-3.8484,-3.8502,-3.8522,-3.8556,-3.8601,-3.8579,-3.8594,-3.8585,-3.8615,-3.8685,-3.8587,-3.8588,-3.8604,-3.8762,-3.8779,-3.8792,-3.8672,-3.8675,-3.8676,-3.876,0,-3.8404,-3.8477,-3.8469,-3.8539,-3.8572,-3.8547,-3.8584,-3.8599,-3.8601,-3.8628,-3.863,-3.8661,-3.8631,-3.864,-3.8669,-3.8671,-3.8717,-3.8665,-3.8702,-3.8704,-3.8697,-3.8807,-3.8824,-3.8903,-3.8771,-3.8773,-3.8774,0,-3.8511,-3.8536,-3.8609,-3.8623,-3.8636,-3.867,-3.8695,-3.8723,-3.874,-3.8739,-3.8756,-3.8742,-3.8783,-3.8743,-3.88,-3.8764,-3.878,-3.8783,-3.8786,-3.8787,-3.8742,-3.881,-3.8928,-3.8939,-3.8791,-3.879,-3.8789,0,-3.8586,-3.8637,-3.8687,-3.8698,-3.8716,-3.874,-3.8748,-3.8763,-3.8781,-3.8804,-3.8815,-3.8842,-3.8857,-3.8878,-3.8871,-3.8842,-3.8928,-3.8888,-3.8927,-3.8927,-3.8944,-3.8943,-3.9065,-3.8958,-3.8957,-3.8957,-3.8957,0,-3.868,-3.8725,-3.8721,-3.8751,-3.8801,-3.8792,-3.8841,-3.8847,-3.886,-3.8891,-3.8872,-3.89,-3.8891,-3.8919,-3.8914,-3.896,-3.8968,-3.8967,-3.8965,-3.8968,-3.8967,-3.8976,-3.8969,-3.896,-3.896,-3.8959,-3.8959,0,-3.877,-3.8769,-3.8822,-3.8836,-3.884,-3.8876,-3.8887,-3.8915,-3.8916,-3.8955,-3.8964,-3.8965,-3.8997,-3.8993,-3.9029,-3.9025,-3.9083,-3.9075,-3.9077,-3.9075,-3.9114,-3.9109,-3.9244,-3.9261,-3.9144,-3.9145,-3.9146,0,-3.8829,-3.8864,-3.8881,-3.8901,-3.8911,-3.8943,-3.8962,-3.8954,-3.8974,-3.8996,-3.9021,-3.9052,-3.9076,-3.9129,-3.9132,-3.9159,-3.9151,-3.9196,-3.9154,-3.9156,-3.9149,-3.9146,-3.9149,-3.9204,-3.9205,-3.9206,-3.9207,0,-3.8934,-3.8932,-3.896,-3.8988,-3.9011,-3.9032,-3.9051,-3.9069,-3.9063,-3.9086,-3.9119,-3.9138,-3.9175,-3.9205,-3.9231,-3.9239,-3.9222,-3.9221,-3.9231,-3.9233,-3.9232,-3.9231,-3.9098,-3.9217,-3.9216,-3.9215,-3.9215,-3.9214,-3.9009,-3.9038,-3.9055,-3.9087,-3.9101,-3.912,-3.9147,-3.9152,-3.9179,-3.9209,-3.9203,-3.9241,-3.9256,-3.9289,-3.93,-3.9328,-3.9311,-3.9327,-3.933,-3.9334,-3.9337,-3.923,-3.9333,-3.9333,-3.9333,-3.9332,-3.9332,0,-3.911,-3.9121,-3.915,-3.9178,-3.9203,-3.9187,-3.9207,-3.9229,-3.9262,-3.9279,-3.9303,-3.9341,-3.9371,-3.9377,-3.9405,-3.9426,-3.9419,-3.9434,-3.9431,-3.9433,-3.9352,-3.9339,-3.9439,-3.9439,-3.9439,-3.9439,-3.9439,-3.9439,-3.9166,-3.9214,-3.9215,-3.927,-3.9279,-3.9316,-3.9329,-3.9346,-3.9359,-3.9403,-3.9428,-3.9432,-3.9444,-3.9473,-3.9499,-3.95,-3.951,-3.9528,-3.9526,-3.9449,-3.9439,-3.9428,-3.9416,-3.9531,-3.9531,-3.9604,-3.9604,-3.9605]},{"header":{"parameterUnit":"m.s-1","parameterCategory":1,"la1":30.2991,"la2":30.254,"lo1":-89.0895,"lo2":-89.0444,"dy":0.0017,"dx":0.0017,"nx":28,"ny":28,"refTime":"2025-03-31T21:00:00:Z","depth":0,"parameterNumber":3,"parameterNumberName":"V-component_of_WINDS"},"data":[0,0,0,0,0,0,0,0,0,0,0,0,0,0,0,0,0,0,0,0,0,0,0,0,0,0,0,0,0,0,0,0,0,0,0,0,0,0,0,0,0,0,0,0,0,0,0,0,0,0,0,0,0,0,0,0,0,0,-2.0242,-2.0241,0,-2.0163,-2.0162,-2.0161,-2.0086,-2.0085,-2.0084,-2.0083,-2.0003,-2.0002,-2.0001,0,0,0,0,0,0,0,0,0,0,0,0,0,-2.0325,-2.0323,-2.0242,-2.0241,-2.024,-2.0163,-2.0162,-2.0161,-2.0086,-2.0085,-2.0084,-2.0083,-2.0003,-2.0002,-2.0,0,0,0,0,0,0,0,0,0,0,0,0,0,-2.0272,-2.0323,-2.0242,-2.0193,-2.0188,-2.0164,-2.0162,-2.0161,-2.0086,-2.0085,-2.0083,-2.0082,-2.0004,-2.0002,-2.0,-2.0018,0,0,-1.9995,-1.9994,0,0,0,0,0,0,0,0,-2.0275,-2.0269,-2.0201,-2.0197,-2.0191,-2.0133,-2.0162,-2.0113,-2.0087,-2.0125,-2.0083,-2.0081,-2.0047,-2.0042,-2.003,-2.0014,-2.0011,-1.9994,-1.9993,-1.9993,-1.9992,0,0,0,0,0,0,0,-2.0279,-2.0272,-2.0211,-2.02,-2.0194,-2.0174,-2.0165,-2.0152,-2.0095,-2.0122,-2.0116,-2.0108,-2.0044,-2.0032,-2.0028,-2.0009,-1.9994,-1.9993,-1.9992,-1.9991,-1.9999,-2.0001,0,0,0,0,0,0,-2.029,-2.0275,-2.0213,-2.0208,-2.023,-2.0174,-2.0164,-2.0153,-2.0095,-2.0085,-2.0109,-2.0104,-2.0036,-2.003,-2.0025,-2.0039,-1.9993,-1.9991,-1.999,-1.9998,-2.0,-2.0001,0,0,0,0,0,0,-2.0292,-2.0285,-2.0216,-2.024,-2.023,-2.0174,-2.0162,-2.0152,-2.014,-2.0086,-2.0075,-2.0107,-2.0035,-2.0027,-2.0019,-2.0035,-1.999,-1.9988,-1.9997,-1.9999,-2.0,-2.007,0,0,0,0,0,0,-2.0295,-2.0286,-2.0293,-2.0241,-2.0229,-2.0213,-2.0164,-2.0152,-2.0137,-2.013,-2.0081,-2.0072,-2.0033,-2.0022,-2.0017,-2.0032,-1.9987,-1.9995,-1.9997,-2.0,-2.0066,-2.0074,-2.0081,0,0,0,0,0,-2.0298,-2.0317,-2.0294,-2.0287,-2.0237,-2.0214,-2.0208,-2.0162,-2.0139,-2.0145,-2.0109,-2.0073,-2.0034,-2.0022,-2.0016,-2.003,-1.9994,-1.9997,-2.0,-2.0063,-2.0073,-2.0081,0,0,0,0,0,0,-2.0374,-2.0309,-2.0283,-2.0286,-2.0256,-2.0202,-2.0208,-2.0175,-2.0151,-2.0146,-2.0091,-2.008,-2.0078,-2.0053,-2.0041,-2.0042,-2.0009,-2.0011,-2.0059,-2.0068,-2.0075,-2.0081,-1.9985,0,0,0,0,0,-2.0391,-2.0379,-2.0323,-2.033,-2.0316,-2.0265,-2.0254,-2.0221,-2.0188,-2.0175,-2.0139,-2.0108,-2.0088,-2.0076,-2.0056,-2.0061,-2.0048,-2.0068,-2.0076,-2.0082,-2.0084,-2.0082,-2.009,-2.0011,-2.0011,-2.0011,0,0,-2.0426,-2.0389,-2.0385,-2.0345,-2.0318,-2.0305,-2.0255,-2.0245,-2.0234,-2.0173,-2.0163,-2.0135,-2.0096,-2.0095,-2.0092,-2.0074,-2.0103,-2.0086,-2.0091,-2.009,-2.0086,-2.0094,-2.0101,-2.0013,-2.0013,-2.0012,0,0,-2.0484,-2.0455,-2.0457,-2.043,-2.039,-2.0354,-2.0355,-2.0304,-2.0283,-2.0272,-2.0225,-2.0211,-2.0179,-2.0152,-2.0135,-2.0178,-2.0143,-2.0173,-2.0212,-2.0211,-2.0217,-2.0222,-2.0236,-2.0242,-2.0175,-2.0175,-2.0175,0,-2.0533,-2.0513,-2.0463,-2.0454,-2.0437,-2.0379,-2.038,-2.0356,-2.0311,-2.03,-2.028,-2.0236,-2.0206,-2.0196,-2.0206,-2.0194,-2.0191,-2.0179,-2.022,-2.0225,-2.0229,-2.0241,-2.0247,-2.0179,-2.0178,-2.0178,-2.0178,0,-2.0574,-2.056,-2.0567,-2.0523,-2.0506,-2.0502,-2.045,-2.0439,-2.0407,-2.0373,-2.036,-2.0322,-2.0291,-2.0285,-2.0255,-2.027,-2.0259,-2.0231,-2.0196,-2.0241,-2.0252,-2.0256,-2.0184,-2.0183,-2.0182,-2.0181,0,0,-2.068,-2.0606,-2.0609,-2.0587,-2.0536,-2.0524,-2.0516,-2.0485,-2.0475,-2.0445,-2.0436,-2.0408,-2.0379,-2.0359,-2.0325,-2.0324,-2.0357,-2.0294,-2.0292,-2.0306,-2.0368,-2.039,-2.0397,-2.0334,-2.0334,-2.0335,-2.0371,0,-2.0728,-2.0712,-2.0665,-2.0662,-2.0647,-2.059,-2.0583,-2.055,-2.0518,-2.0499,-2.0463,-2.0444,-2.0409,-2.0396,-2.0392,-2.0354,-2.0369,-2.0351,-2.0323,-2.0323,-2.0335,-2.0402,-2.0426,-2.0463,-2.0375,-2.0376,-2.0376,0,-2.0784,-2.0755,-2.0751,-2.0697,-2.0689,-2.0684,-2.0649,-2.0633,-2.0593,-2.0569,-2.0545,-2.0505,-2.0492,-2.0459,-2.0438,-2.0427,-2.0412,-2.0392,-2.0392,-2.0388,-2.0353,-2.0399,-2.0473,-2.0479,-2.0383,-2.0382,-2.0382,0,-2.086,-2.082,-2.0812,-2.0795,-2.0733,-2.0729,-2.0703,-2.0662,-2.0645,-2.0614,-2.0602,-2.0571,-2.0553,-2.0529,-2.0481,-2.0462,-2.0465,-2.0429,-2.0444,-2.0445,-2.0448,-2.0448,-2.052,-2.0439,-2.0439,-2.0439,-2.0439,0,-2.0919,-2.0918,-2.0845,-2.084,-2.0836,-2.0781,-2.0778,-2.0746,-2.0709,-2.0695,-2.0644,-2.0632,-2.057,-2.055,-2.0512,-2.0499,-2.0492,-2.0471,-2.0461,-2.0476,-2.0478,-2.0466,-2.0462,-2.044,-2.044,-2.044,-2.0439,0,-2.1004,-2.0955,-2.0942,-2.0883,-2.0867,-2.0867,-2.0816,-2.0807,-2.077,-2.0753,-2.0746,-2.0688,-2.0661,-2.0611,-2.0571,-2.0545,-2.054,-2.0523,-2.0554,-2.0547,-2.0564,-2.0563,-2.063,-2.0635,-2.0553,-2.0553,-2.0554,0,-2.1045,-2.1043,-2.0983,-2.0969,-2.0945,-2.0925,-2.0906,-2.0851,-2.0833,-2.0785,-2.0782,-2.0751,-2.0724,-2.0684,-2.0637,-2.0605,-2.0586,-2.0612,-2.0581,-2.0595,-2.0585,-2.0586,-2.0584,-2.0619,-2.062,-2.0621,-2.0622,0,-2.1123,-2.1097,-2.1073,-2.104,-2.1019,-2.099,-2.0958,-2.095,-2.0886,-2.0869,-2.084,-2.0819,-2.0776,-2.0745,-2.0706,-2.0677,-2.0638,-2.0632,-2.0633,-2.0648,-2.0665,-2.0655,-2.0572,-2.0631,-2.063,-2.0629,-2.0629,-2.0628,-2.1186,-2.118,-2.1136,-2.111,-2.1079,-2.105,-2.1038,-2.0998,-2.0974,-2.0935,-2.0903,-2.0877,-2.0832,-2.0775,-2.0748,-2.0726,-2.0708,-2.071,-2.0711,-2.0712,-2.0717,-2.0669,-2.0718,-2.0718,-2.0718,-2.0717,-2.0717,0,-2.126,-2.1228,-2.1204,-2.116,-2.1138,-2.1103,-2.1065,-2.1049,-2.1026,-2.0989,-2.0962,-2.0927,-2.0896,-2.0846,-2.081,-2.0801,-2.0783,-2.0794,-2.0794,-2.0787,-2.0736,-2.0738,-2.081,-2.081,-2.081,-2.081,-2.081,-2.0809,-2.1296,-2.1283,-2.1252,-2.1223,-2.119,-2.1164,-2.1145,-2.1116,-2.1086,-2.105,-2.1023,-2.099,-2.0946,-2.0906,-2.0875,-2.0861,-2.085,-2.0866,-2.0847,-2.08,-2.0791,-2.0783,-2.0784,-2.0865,-2.0865,-2.0899,-2.0899,-2.09]}]]